sat.trackr.live / text

‹ back to catalog

HAIYANG-2E

NORAD 69737 · 2026-149A

PAYLOAD ACTIVE UNKNOWN

§ Identity

Operator
Country
PRC
Launch date
2026-07-01
Launch site
JSC
Launch vehicle
Mass (kg)
RCS (m²)

External: N2YO · Heavens-Above · Gunter

§ Orbital elements

Epoch: 2026-09-20T00:57:37.247616Z

Period
104.40 min
Inclination
99.3478°
Eccentricity
0.0000394
Mean motion
13.79299747 rev/d
Perigee alt
966.1 km
Apogee alt
966.7 km
Semi-major
7,344.5 km
B*
3.5461e-5
RAAN
269.0684°
Arg perigee
79.1387°
Mean anomaly
280.9809°
Rev number
1,103

§ Raw data

HAIYANG-2E1 69737U 26149A   26263.04001444 -.00000008  00000+0  35461-4 0  99912 69737  99.3478 269.0684 0000394  79.1387 280.9809 13.79299747 11039

JSON: /api/v1/satellites/69737 · /tle

For live sub-satellite position, see the globe view (requires WebGL).

§ Visibility from observer

Set your observer location to see the next 7 days of passes ≥ 10°. The values pass through the URL so the page stays shareable.

No JS? Fill the form by hand. The geolocation button needs JavaScript.